Location: Unspecified
(0.0000°N, 0.0000°E)
Time: 17:20:24
(UTC+00:00)

STARLINK 1040 - Pass Details

Date: 15 January 2020
Orbit: 337 x 343 km, 53.0° (Epoch: 23 January)

Event Time Altitude Azimuth Distance (km) Brightness Sun altitude
Rises 05:36:50 0° 193° (SSW) 2,120 6.7 -7.5°
Reaches altitude 10° 05:39:09 10° 175° (S) 1,277 5.9 -7.0°
Maximum altitude 05:41:20 20° 125° (SE) 864 5.9 -6.5°
Drops below altitude 10° 05:43:29 10° 74° (ENE) 1,269 6.4 -6.0°
Sets 05:45:47 0° 56° (NE) 2,102 7.1 -5.4°
